Location: Newark
(45.5000°N, 11.4167°E)
Time: 23:54:19
(UTC+00:00)

Vanguard 3 - All Passes

Search period start: 23 August 2019 00:00
Search period end: 02 September 2019 00:00
Orbit: 508 x 3263 km, 33.3° (Epoch: 23 August)

Date Brightness Start Highest point End Pass type
(mag) Time Alt. Az. Time Alt. Az. Time Alt. Az.
23 Aug - 15:21:11 10° SSW 15:26:29 18° SSE 15:30:26 10° SE daylight
23 Aug - 17:33:18 10° SW 17:37:47 21° S 17:41:07 10° SE daylight
23 Aug - 19:46:56 10° SW 19:48:19 11° SSW 19:49:38 10° S visible
24 Aug - 14:07:03 10° SSW 14:12:26 15° SSE 14:16:36 10° SE daylight
24 Aug - 16:18:19 10° SW 16:24:14 23° S 16:28:20 10° SE daylight
24 Aug - 18:31:33 10° WSW 18:35:07 18° SSW 18:37:58 10° SSE visible
25 Aug - 12:54:16 10° S 12:58:05 12° SSE 13:01:21 10° SE daylight
25 Aug - 15:03:14 10° SW 15:10:23 23° S 15:15:17 10° ESE daylight
25 Aug - 17:16:22 10° WSW 17:21:46 24° S 17:25:35 10° SE daylight
25 Aug - 19:30:56 10° SW 19:32:15 11° SSW 19:33:29 10° S visible
26 Aug - 13:48:22 10° SSW 13:56:13 20° SSE 14:01:46 10° ESE daylight
26 Aug - 16:00:57 10° SW 16:08:10 27° S 16:12:54 10° ESE daylight
26 Aug - 18:14:57 10° WSW 18:19:05 19° SSW 18:22:16 10° SSE daylight
27 Aug - 12:34:16 10° S 12:41:42 17° SSE 12:47:24 10° ESE daylight
27 Aug - 14:45:23 10° SW 14:54:13 28° S 14:59:56 10° ESE daylight
27 Aug - 16:59:22 10° WSW 17:05:43 27° S 17:10:00 10° SE daylight
27 Aug - 19:14:49 10° SW 19:16:08 11° SSW 19:17:21 10° SSW visible
28 Aug - 11:22:20 10° SSE 11:26:55 12° SSE 11:30:55 10° SE daylight
28 Aug - 13:29:57 10° SSW 13:39:53 25° SSE 13:46:32 10° ESE daylight
28 Aug - 15:43:32 10° WSW 15:52:02 32° S 15:57:22 10° ESE daylight
28 Aug - 17:58:14 10° WSW 18:03:00 20° SSW 18:06:31 10° SSE daylight
29 Aug - 12:15:08 10° SSW 12:25:12 21° SSE 12:32:27 10° ESE daylight
29 Aug - 14:27:32 10° SW 14:37:57 33° S 14:44:26 10° ESE daylight
29 Aug - 16:42:16 10° WSW 16:49:37 29° SSW 16:54:22 10° SE daylight
29 Aug - 18:58:34 10° SW 18:59:58 11° SSW 19:01:14 10° SSW visible
30 Aug - 11:01:42 10° S 11:10:14 16° SSE 11:17:06 10° ESE daylight
30 Aug - 13:11:39 10° SW 13:23:27 31° SSE 13:31:05 10° ESE daylight
30 Aug - 15:26:03 10° WSW 15:35:50 35° S 15:41:47 10° ESE daylight
30 Aug - 17:41:25 10° WSW 17:46:51 21° SSW 17:50:45 10° SSE daylight
31 Aug - 09:52:59 10° SSE 09:55:08 10° SE 09:57:12 10° SE daylight
31 Aug - 11:56:20 10° SSW 12:08:34 26° SSE 12:17:08 10° ESE daylight
31 Aug - 14:09:40 10° SW 14:21:35 37° S 14:28:49 10° ESE daylight
31 Aug - 16:25:03 10° WSW 16:33:26 31° SSW 16:38:42 10° SE daylight
31 Aug - 18:42:13 10° SW 18:43:44 11° SW 18:45:05 10° SSW visible
01 Sep - 10:42:10 10° S 10:53:26 21° SSE 11:02:10 10° ESE daylight
01 Sep - 12:53:26 10° SW 13:06:54 35° SSE 13:15:28 10° ESE daylight
01 Sep - 15:08:30 10° WSW 15:19:31 39° S 15:26:07 10° ESE daylight
01 Sep - 17:24:29 10° WSW 17:30:38 22° SSW 17:34:55 10° SSE daylight
